小惑星A/2018 V3

A/2018 V3

English version
Home page
Updated on August 15, 2020

---------------------------------------------------------------------

・ プロフィール

発見日 2018年11月12日
発見光度 21.9等
発見者 Pan-STARRS 2 (Haleakala)

・ 写真集

・ 軌道要素

Epoch 2019 Aug. 25.0 TT = JDT 2458720.5
T 2019 Sept. 8.69989 TT                                 Rudenko
q   1.3395043            (2000.0)            P               Q
z  +0.0082129      Peri.    3.50033     +0.57742210     -0.79095579
 +/-0.0000005      Node   308.65548     -0.75522867     -0.61164233
e   0.9889988      Incl.  164.97713     -0.31018281     +0.01681096
H   15.7
From 287 observations 2018 Nov. 2-2020 June 16, mean residual 0".6.

・ 星図

・ 光度変化

        H = 15.5  G = 0.15

---------------------------------------------------------------------

軌道要素はM.P.E.C. 2020-P19に掲載されたものです。
星図はステラナビゲータ Ver.10 (アストロアーツ) で作成したものです。
光度グラフはComet for Windowsで作成したものです。

---------------------------------------------------------------------

Copyright(C) Seiichi Yoshida (comet@aerith.net). All rights reserved.